[Date Prev][Date Next][Thread Prev][Thread Next] - [Date Index][Thread Index][Author Index]
2 Line ISS Keps 6-16
- Subject: [sarex] 2 Line ISS Keps 6-16
- From: "Dave Larsen PhD" <doc@xxxxxxxxxxx>
- Date: Wed, 15 Jun 2005 20:17:55 -0700
ISS
1 25544U 98067A 05166.84883221 .00021182 00000-0 15682-3 0 6967
2 25544 051.6459 267.7678 0004188 256.1536 202.5006 15.72873863375475
----
Via the sarex mailing list at AMSAT.ORG courtesy of AMSAT-NA.
To unsubscribe, send "unsubscribe sarex" to Majordomo@amsat.org
AMSAT Home